Location: Unspecified
(0.0000°N, 0.0000°E)
Time: 19:30:10
(UTC+00:00)

STARLINK-1030 - Pass Details

Date: 19 January 2020
Orbit: 548 x 551 km, 53.0° (Epoch: 26 February)

Event Time Altitude Azimuth Distance (km) Brightness Sun altitude
Rises 17:40:32 0° 300° (WNW) 2,708 7.8 7.0°
Reaches altitude 10° 17:43:15 10° 282° (WNW) 1,817 7.4 6.3°
Drops below altitude 10° 17:49:16 10° 189° (S) 1,820 6.7 4.9°
Enters shadow 18:18:09 -55° 134° (SE) 11,115 10.1 -1.8°
Exits shadow 18:25:36 -68° 120° (ESE) 12,411 10.3 -3.6°
Maximum altitude 04:04:13 26° 124° (SE) 1,088 5.7 -29.4°
